Wolf Creek, OR

8:52 PM PST on February 22, 2017 (GMT -0800)
Sexton Summit

Weather History for KSXT - August, 2013

Change the Weather History Date:

Wednesday, August 7, 2013

  Actual Average Record
Temperature  
Mean Temperature 65 °F -  
Max Temperature 75 °F 76 °F 87 °F (1996)
Min Temperature 55 °F 53 °F 46 °F (2002)
Growing Degree Days 15 (Base 50)    
Moisture  
Dew Point 49 °F    
Average Humidity 56    
Maximum Humidity 75    
Minimum Humidity 40    
Precipitation  
Precipitation 0.00 in - - ()
Sea Level Pressure  
Sea Level Pressure 30.00 in    
Wind  
Wind Speed 7 mph (North)    
Max Wind Speed 15 mph    
Max Gust Speed 21 mph    
Visibility 5 miles    
Events Rain    
Averages and records for this station are not official NWS values.
T = Trace of Precipitation, MM = Missing Value Source: NWS Daily Summary

Daily Weather History Graph

Daily Weather History Graph

Search for Another Location

Airport or City:

Trip Planner

Search our weather history database for the weather conditions in past years. The results will help you decide how hot, cold, wet, or windy it might be!

Date:

Astronomy

Aug. 07, 2013 Rise Set
Actual Time 6:11 AM PDT 8:25 PM PDT
Civil Twilight 5:40 AM PDT 8:56 PM PDT
Nautical Twilight 5:02 AM PDT 9:35 PM PDT
Astronomical Twilight 4:19 AM PDT 10:17 PM PDT
Moon 7:08 AM PDT (8/7) 8:32 PM PDT (8/7)
Length of Visible Light 15h 16m
Length of Day
14h 13m
New Moon, 1% of the Moon is Illuminated
Aug 7
New Moon
Aug 14
First Quarter
Aug 20
Full
Aug 28
Last Quarter
Sep 5
New

Hourly Weather History & Observations

Time (PDT) Temp. Dew Point Humidity Pressure Visibility Wind Dir Wind Speed Gust Speed Precip Events Conditions
12:56 AM 62.1 °F 48.9 °F 62% 29.91 in 10.0 mi North 9.2 mph - N/A   Scattered Clouds
1:56 AM 62.1 °F 48.9 °F 62% 29.89 in 10.0 mi North 10.4 mph - N/A   Clear
2:56 AM 64.0 °F 46.9 °F 54% 29.90 in 10.0 mi NNE 13.8 mph - N/A   Partly Cloudy
3:56 AM 64.0 °F 46.0 °F 52% 29.92 in 10.0 mi ESE 8.1 mph - N/A   Partly Cloudy
4:56 AM 64.0 °F 48.9 °F 58% 29.88 in 8.0 mi East 5.8 mph - N/A   Partly Cloudy
5:56 AM 64.9 °F 48.0 °F 54% 29.89 in 5.0 mi Calm Calm - N/A   Haze
6:56 AM 63.0 °F 48.0 °F 58% 29.92 in 4.0 mi ESE 5.8 mph - N/A   Haze
7:56 AM 63.0 °F 51.1 °F 65% 29.93 in 4.0 mi ESE 8.1 mph - N/A   Haze
8:56 AM 63.0 °F 51.1 °F 65% 29.95 in 3.0 mi East 4.6 mph - N/A   Haze
9:36 AM 64.4 °F 48.2 °F 56% 30.08 in 2.5 mi Calm Calm - N/A   Haze
9:52 AM 60.8 °F 46.4 °F 59% 30.09 in 1.5 mi North 6.9 mph - N/A   Haze
9:56 AM 62.1 °F 46.9 °F 58% 29.97 in 1.5 mi North 5.8 mph - N/A   Haze
10:20 AM 64.4 °F 48.2 °F 56% 30.10 in 2.0 mi North 8.1 mph - N/A   Haze
10:29 AM 64.4 °F 48.2 °F 56% 30.10 in 1.8 mi NNW 4.6 mph - N/A   Haze
10:56 AM 66.9 °F 48.9 °F 52% 29.98 in 2.0 mi North 4.6 mph - N/A   Haze
11:56 AM 70.0 °F 48.9 °F 47% 29.96 in 2.0 mi Calm Calm - N/A   Haze
12:08 PM 71.6 °F 50.0 °F 46% 30.10 in 1.5 mi Variable 4.6 mph - N/A   Haze
12:20 PM 68.0 °F 51.8 °F 56% 30.10 in 1.2 mi NNW 4.6 mph - N/A   Haze
12:30 PM 68.0 °F 50.0 °F 52% 30.10 in 1.5 mi NNW 4.6 mph - N/A   Haze
12:56 PM 71.1 °F 50.0 °F 47% 29.95 in 1.5 mi NNW 6.9 mph - N/A   Haze
1:05 PM 68.0 °F 50.0 °F 52% 30.10 in 1.0 mi Variable 4.6 mph - N/A   Haze
1:10 PM 66.2 °F 48.2 °F 52% 30.10 in 0.8 mi NNW 6.9 mph - N/A   Haze
1:34 PM 69.8 °F 50.0 °F 49% 30.10 in 0.8 mi NNW 4.6 mph - N/A   Haze
1:41 PM 71.6 °F 51.8 °F 50% 30.10 in 1.0 mi Variable 3.5 mph - N/A   Haze
1:56 PM 73.0 °F 50.0 °F 44% 29.95 in 1.2 mi NNW 6.9 mph - N/A   Haze
2:37 PM 75.2 °F 51.8 °F 44% 30.09 in 1.5 mi North 5.8 mph - N/A   Haze
2:56 PM 75.9 °F 50.0 °F 40% 29.93 in 2.0 mi Variable 3.5 mph - N/A   Haze
3:24 PM 71.6 °F 48.2 °F 43% 30.09 in 4.0 mi Variable 5.8 mph - N/A   Haze
3:31 PM 71.6 °F 48.2 °F 43% 30.09 in 8.0 mi Variable 4.6 mph - N/A   Scattered Clouds
3:56 PM 66.9 °F 48.0 °F 51% 29.97 in 10.0 mi NNW 6.9 mph - N/A   Scattered Clouds
4:56 PM 62.1 °F 48.0 °F 60% 29.95 in 10.0 mi NNW 10.4 mph 20.7 mph 0.00 in Rain Light Rain
5:56 PM 61.0 °F 46.0 °F 58% 29.95 in 10.0 mi NNE 12.7 mph - N/A   Scattered Clouds
6:56 PM 60.1 °F 48.9 °F 67% 29.97 in 10.0 mi NNW 9.2 mph - N/A   Clear
7:56 PM 57.9 °F 48.9 °F 72% 29.99 in 10.0 mi North 10.4 mph - N/A   Mostly Cloudy
8:56 PM 55.9 °F 48.0 °F 75% 30.00 in 10.0 mi North 12.7 mph - N/A   Clear
9:56 PM 57.0 °F 46.0 °F 67% 30.01 in 10.0 mi North 15.0 mph 20.7 mph N/A   Clear
10:56 PM 57.0 °F 46.0 °F 67% 30.00 in 10.0 mi North 9.2 mph - N/A   Scattered Clouds
11:56 PM 57.9 °F 45.0 °F 62% 29.97 in 10.0 mi North 15.0 mph - N/A   Clear